CAPE
32 6 3 4 0 0 0 0 0 0 0 11 3 0 0 4 168 242 210 0 16 171 237 157 3 5 0 0 81 56 0 0 0 0 0 0 0 0 0 0 0 0 0 0
2 20 0 0 2 0 0 0 0 0 0 22 3 0 0 0 34 37 56 0 0 0 1 1 0 0 0 65 197 65 0 0 0 0 0 0 0 0 0 0 0 0 0 0
0 10 0 1 1 0 0 0 0 0 0 0 0 0 0 0 0 0 7 0 0 0 0 0 0 0 8 194 219 62 15 0 0 0 0 0 0 0 0 0 0 0 0 0
0 0 5 4 0 0 0 0 0 0 0 0 0 0 0 0 0 0 10 0 0 0 0 0 1 0 32 212 197 99 15 0 0 0 0 0 0 0 0 0 0 0 0 0
0 0 0 0 0 0 0 0 0 0 0 0 0 0 0 0 0 0 0 2 0 0 0 2 76 54 73 149 149 100 24 0 0 0 0 0 0 0 0 0 0 0 0 0
0 0 0 0 0 0 0 0 0 0 0 0 0 0 0 0 0 0 0 0 0 0 7 13 49 283 220 178 136 110 162 124 22 0 0 0 0 0 0 0 0 0 0 0
0 0 0 0 0 0 0 0 0 0 0 0 0 0 0 0 0 0 0 0 0 0 110 60 303 447 355 311 226 213 311 230 45 0 0 0 0 0 0 0 0 0 0 0
0 0 0 0 0 1 0 0 0 0 0 0 0 0 0 0 0 0 0 0 0 0 155 220 377 470 538 454 334 288 170 78 0 0 0 0 0 0 0 0 0 0 0 0
1 7 0 1 0 0 0 0 0 0 0 0 0 0 0 0 7 0 0 0 80 67 246 381 380 309 232 126 49 88 68 0 0 0 0 0 0 0 0 0 0 0 0 0
1 7 0 0 0 0 0 0 4 2 0 0 0 0 0 0 46 3 0 0 174 90 103 161 111 137 134 59 1 0 0 0 0 0 0 0 0 0 0 0 0 0 0 0
7 0 0 3 0 0 0 0 0 0 0 0 2 0 0 0 18 64 9 18 262 193 34 31 21 16 5 0 0 0 0 0 0 0 0 0 0 0 0 0 0 0 0 0
12 0 0 0 0 0 0 0 0 0 0 0 0 0 0 0 0 5 100 74 110 95 10 0 0 0 0 0 0 0 0 0 0 0 0 0 0 0 0 0 0 0 0 0
0 0 0 0 0 0 0 0 0 0 0 0 0 0 0 0 0 0 0 0 59 11 0 0 0 0 0 0 0 0 0 0 0 0 0 0 0 0 0 0 0 0 0 0
8 0 0 0 0 0 0 0 0 0 0 0 0 0 0 0 0 0 0 0 0 16 0 0 0 0 0 0 0 0 0 0 0 0 0 0 0 0 0 0 0 0 0 0
0 0 0 0 0 0 0 0 0 0 0 0 0 0 0 0 0 0 0 0 0 0 0 0 0 0 0 0 0 0 0 0 0 0 0 0 0 0 0 0 0 0 0 0
0 0 0 0 0 0 0 0 0 0 0 0 0 0 0 0 0 0 0 0 0 0 0 0 0 0 0 0 0 0 0 0 0 0 0 0 0 0 0 0 0 0 0 0
0 0 0 0 0 0 0 0 0 0 0 0 0 0 0 0 0 0 0 0 0 0 0 0 0 0 0 0 0 0 0 0 0 0 0 0 0 0 0 0 0 0 0 0
0 0 0 0 0 0 0 0 0 0 0 0 0 0 0 0 0 0 0 0 0 0 0 0 0 0 0 0 0 0 0 0 0 0 0 0 0 0 0 0 0 0 0 0
0 0 0 0 0 0 0 0 0 0 0 0 0 0 0 0 0 0 0 0 0 0 0 0 0 0 0 0 0 0 0 0 0 0 0 0 0 0 0 0 0 0 0 0
0 0 0 0 0 0 0 0 0 0 0 0 0 0 0 0 0 0 0 0 0 0 0 0 0 0 0 0 0 0 0 0 0 0 0 0 0 0 0 0 0 0 0 0
0 0 0 0 0 0 0 0 0 0 0 0 0 0 0 0 0 0 0 0 0 0 0 0 0 0 0 0 0 0 0 0 0 0 0 0 0 0 0 0 0 0 0 0
0 0 0 0 0 0 0 0 0 0 0 0 0 0 0 0 0 0 0 0 0 0 0 0 0 0 0 0 0 0 0 0 0 0 0 0 0 0 0 0 0 0 0 0
0 0 0 0 0 0 0 0 0 0 0 0 0 0 0 0 0 0 0 0 0 0 0 0 0 0 0 0 0 0 0 0 0 0 0 0 0 0 0 0 0 0 0 0
0 0 0 0 0 0 0 0 0 0 0 0 0 0 0 0 0 0 0 0 0 0 0 0 0 0 0 0 0 0 0 0 0 0 0 0 0 0 0 0 0 0 0 0
0 0 0 0 0 0 0 0 0 0 0 0 0 0 0 0 0 0 0 0 0 0 0 0 0 0 0 0 0 0 0 0 0 0 0 0 0 0 0 0 0 0 0 0
0 0 0 0 0 0 0 0 0 0 0 0 0 0 0 0 0 0 0 0 0 0 0 0 0 0 0 0 0 0 0 0 0 0 0 0 0 0 0 0 0 0 0 0
CIN
-160 -104 -118 -108 0 0 -60 0 0 0 0 -91 -81 0 0 -58 -158 -127 -120 -1 -254 -172 -153 -196 -106 -315 0 0 -316 -347 0 0 0 0 0 0 0 0 0 0 0 0 0 0
-160 -69 0 0 -36 0 0 0 0 0 0 -98 -53 0 0 0 -136 -144 -197 0 0 -32 -212 -101 -103 0 0 -409 -306 -360 0 0 0 0 0 0 0 0 0 0 0 0 0 0
0 -69 0 -42 -41 0 0 0 0 0 0 0 0 0 0 0 0 0 -96 0 0 0 0 0 0 0 -270 -369 -346 -401 -391 0 0 0 0 0 0 0 0 0 0 0 0 0
0 0 -122 -90 0 0 0 0 0 0 0 0 0 0 0 0 0 0 -157 0 0 0 0 0 -260 0 -406 -352 -339 -370 -417 0 0 0 0 0 0 0 0 0 0 0 0 0
0 0 0 0 0 0 0 0 0 0 0 0 0 0 0 0 0 0 0 -167 0 0 0 -139 -355 -357 -359 -370 -352 -348 -353 0 0 0 0 0 0 0 0 0 0 0 0 0
0 0 0 0 0 0 0 0 0 0 0 0 0 0 0 0 0 0 0 0 0 0 -103 -298 -411 -278 -315 -317 -305 -304 -202 -167 -72 0 0 0 0 0 0 0 0 0 0 0
0 0 0 0 0 0 0 0 0 0 0 0 0 0 0 0 0 0 0 0 0 0 -331 -395 -340 -260 -281 -275 -259 -223 -132 -107 -166 0 0 0 0 0 0 0 0 0 0 0
0 -12 0 0 0 -7 0 0 0 0 0 0 0 0 0 0 0 0 0 0 0 0 -334 -366 -342 -297 -261 -248 -213 -182 -195 -215 0 0 0 0 0 0 0 0 0 0 0 0
-8 -63 -49 -162 0 0 -7 0 0 -7 0 0 0 0 0 0 -13 0 0 0 -303 -421 -362 -315 -314 -340 -354 -347 -377 -283 -254 0 0 0 0 0 0 0 0 0 0 0 0 0
-31 -36 0 0 0 0 0 0 -21 -3 0 0 0 0 0 0 -68 -108 0 0 -292 -375 -395 -377 -395 -407 -385 -393 -64 0 0 0 0 0 0 0 0 0 0 0 0 0 0 0
-179 0 0 -137 -15 -7 0 0 0 0 0 0 -10 0 0 0 -53 -108 -230 -285 -240 -278 -414 -417 -472 -486 -143 0 0 0 0 0 0 0 0 0 0 0 0 0 0 0 0 0
-160 0 0 -5 0 0 0 0 0 0 0 0 0 0 0 0 0 -116 -129 -247 -308 -334 -429 0 0 0 0 0 0 0 0 0 0 0 0 0 0 0 0 0 0 0 0 0
0 0 -10 0 0 0 0 0 0 0 0 0 0 0 0 0 0 0 0 0 -239 -378 0 0 0 0 0 0 0 0 0 0 0 0 0 0 0 0 0 0 0 0 0 0
-56 0 0 0 0 0 0 0 0 0 0 0 0 0 0 0 0 0 0 0 0 -295 0 0 0 0 0 0 0 0 0 0 0 0 0 0 0 0 0 0 0 0 0 0
0 0 0 0 0 0 0 0 0 0 0 0 0 0 0 0 0 0 0 0 0 0 0 0 0 0 0 0 0 0 0 0 0 0 0 0 0 0 0 0 0 0 0 0
0 0 0 0 0 0 0 0 0 0 0 0 0 0 0 0 0 0 0 0 0 0 0 0 0 0 0 0 0 0 0 0 0 0 0 0 0 0 0 0 0 0 0 0
0 0 0 0 0 0 0 0 0 0 0 0 0 0 0 0 0 0 0 0 0 0 0 0 0 0 0 0 0 0 0 0 0 0 0 0 0 0 0 0 0 0 0 0
0 0 0 0 0 0 0 0 0 0 0 0 0 0 0 0 0 0 0 0 0 0 0 0 0 0 0 0 0 0 0 0 0 0 0 0 0 0 0 0 0 0 0 0
0 0 0 0 0 0 0 0 0 0 0 0 0 0 0 0 0 0 0 0 0 0 0 0 0 0 0 0 0 0 0 0 0 0 0 0 0 0 0 0 0 0 0 0
0 0 0 0 0 0 0 0 0 0 0 0 0 0 0 0 0 0 0 0 0 0 0 0 0 0 0 0 0 0 0 0 0 0 0 0 0 0 0 0 0 0 0 0
0 0 0 0 0 0 0 0 0 0 0 0 0 0 0 0 0 0 0 0 0 0 0 0 0 0 0 0 0 0 0 0 0 0 0 0 0 0 0 0 0 0 0 0
0 0 0 0 0 0 0 0 0 0 0 0 0 0 0 0 0 0 0 0 0 0 0 0 0 0 0 0 0 0 0 0 0 0 0 0 0 0 0 0 0 0 0 0
0 0 0 0 0 0 0 0 0 0 0 0 0 0 0 0 0 0 0 0 0 0 0 0 0 0 0 0 0 0 0 0 0 0 0 0 0 0 0 0 0 0 0 0
0 0 0 0 0 0 0 0 0 0 0 0 0 0 0 0 0 0 0 0 0 0 0 0 0 0 0 0 0 0 0 0 0 0 0 0 0 0 0 0 0 0 0 0
0 0 0 0 0 0 0 0 0 0 0 0 0 0 0 0 0 0 0 0 0 0 0 0 0 0 0 0 0 0 0 0 0 0 0 0 0 0 0 0 0 0 0 0
0 0 0 0 0 0 0 0 0 0 0 0 0 0 0 0 0 0 0 0 0 0 0 0 0 0 0 0 0 0 0 0 0 0 0 0 0 0 0 0 0 0 0 0
Wind_Speed
3 6 3 4 4 4 4 1 4 7 8 7 9 7 9 10 9 9 10 10 14 18 17 18 18 17 14 12 13 14 13 10 10 6 4 3 4 2 2 3 5 6 5 6
4 2 6 5 7 5 3 7 10 9 6 7 6 7 6 9 11 17 15 13 14 12 15 15 16 15 16 14 13 13 12 12 9 6 3 4 4 3 2 3 4 4 6 6
6 6 1 3 5 4 6 3 8 9 2 1 6 6 4 5 5 7 12 18 16 19 20 16 17 17 15 14 15 14 14 12 9 6 4 3 4 4 3 1 2 4 7 7
5 3 4 4 3 4 6 11 16 6 5 2 3 5 4 6 8 11 9 10 14 14 16 17 18 17 17 14 13 14 13 12 9 8 6 7 7 7 4 4 4 5 7 7
8 3 3 1 6 1 8 1 6 3 3 3 3 4 7 5 6 10 13 15 15 17 19 18 20 23 20 15 14 12 12 12 12 9 9 10 7 5 3 3 7 6 5 4
4 1 4 8 5 2 4 4 6 5 2 1 1 2 5 5 16 13 6 12 11 12 14 15 9 14 13 11 12 12 13 13 11 12 10 12 12 8 6 5 6 4 4 4
2 4 2 1 5 4 3 5 3 6 5 6 5 4 10 6 8 10 10 9 11 11 11 9 12 14 13 16 15 13 16 13 11 10 9 9 10 10 12 9 5 6 4 3
6 3 3 3 3 3 1 5 6 4 3 5 3 5 7 8 9 7 1 7 8 11 13 13 14 13 15 15 14 13 13 8 7 7 8 7 7 5 4 5 6 5 4 3
5 4 4 3 3 2 2 4 5 7 3 4 4 6 5 6 6 5 5 6 7 8 10 14 11 11 12 12 12 12 10 7 8 7 5 8 8 9 8 7 6 5 6 7
8 3 3 4 3 6 7 3 2 3 3 3 5 4 5 1 3 2 4 7 7 7 8 7 9 11 8 9 8 9 10 10 10 9 9 9 8 8 8 7 7 7 7 7
6 5 5 3 7 9 1 2 1 4 5 5 1 7 6 8 8 8 8 8 10 10 12 12 9 9 10 8 9 8 11 13 13 12 9 11 8 8 9 7 6 7 7 6
8 6 5 9 6 5 1 4 5 6 4 1 5 7 4 8 8 8 9 7 7 10 12 13 14 14 13 13 11 12 13 13 11 12 12 12 12 11 8 7 7 6 6 6
8 1 3 7 7 2 6 6 4 4 4 6 7 7 3 3 4 8 10 10 10 9 8 9 9 14 16 15 14 13 11 11 12 11 11 9 9 8 8 8 7 7 6 5
8 5 8 9 8 4 4 2 1 5 4 5 6 5 7 7 7 6 6 7 8 9 11 11 10 13 13 12 10 9 8 10 11 11 12 12 11 10 8 7 7 7 7 7
5 6 5 5 4 2 3 5 3 5 5 6 10 9 9 3 3 4 7 3 4 3 3 5 4 5 6 6 7 8 10 9 11 12 11 7 6 7 5 5 6 7 6 5
2 3 2 1 3 2 2 4 4 5 3 5 5 2 6 5 5 8 6 8 8 6 4 3 6 9 9 10 9 7 7 7 7 9 8 6 8 9 8 7 6 4 4 1
6 6 4 4 3 3 6 8 7 5 3 5 5 6 2 8 8 5 6 9 8 7 7 5 4 6 7 8 9 8 9 10 11 11 9 9 7 8 7 8 7 5 4 5
6 6 3 3 3 2 9 4 5 10 6 7 9 5 6 9 5 8 6 6 7 7 8 10 8 9 8 10 13 14 12 12 12 11 10 10 10 11 9 6 1 3 4 5
5 6 4 5 4 5 6 5 6 7 1 1 7 5 6 6 6 8 7 10 8 10 9 9 10 12 13 13 13 15 13 13 13 12 11 9 11 7 3 5 7 6 4 5
7 5 6 3 5 8 8 3 5 6 2 5 7 5 4 4 4 1 6 9 12 12 10 11 12 14 15 12 13 16 13 13 12 10 8 6 4 4 5 3 5 5 4 5
4 4 6 2 3 8 8 6 3 7 8 6 7 7 5 5 3 10 10 13 12 11 13 12 14 15 12 12 14 14 11 10 7 6 4 3 3 4 3 4 3 4 5 5
8 7 4 3 4 7 6 4 8 7 4 7 6 6 10 11 13 13 12 12 11 12 12 12 13 12 9 10 11 9 8 6 4 1 1 2 1 3 3 5 4 4 4 5
1 8 8 9 8 4 3 5 5 7 8 4 9 6 13 12 11 12 12 11 10 10 8 8 9 8 7 6 6 7 3 5 5 4 2 3 5 5 5 3 5 4 4 4
2 4 4 6 5 5 7 8 7 7 10 7 7 9 13 16 12 13 11 9 7 7 8 6 8 8 6 6 5 4 4 3 2 3 5 5 4 5 5 4 4 4 4 4
6 7 6 5 1 9 8 6 11 13 12 14 13 12 13 15 12 11 9 9 9 8 7 6 6 6 5 5 5 4 4 4 5 5 5 6 4 6 5 5 5 5 6 7
4 8 6 7 12 6 4 4 8 13 11 11 16 13 11 12 13 12 9 6 6 6 5 6 6 6 6 7 7 7 8 6 6 5 5 5 5 5 5 6 8 10 14 15
Wind_Direction
16 61 304 296 231 216 284 278 353 265 212 164 204 200 202 170 172 193 194 179 170 176 177 175 172 174 171 170 156 157 149 151 143 142 131 121 150 146 130 167 154 171 142 122
36 159 229 236 295 48 350 20 295 298 239 160 205 225 239 176 190 195 191 181 175 164 164 173 173 172 174 165 168 159 162 163 164 155 146 150 146 170 158 155 171 166 126 124
169 222 179 333 289 5 289 196 268 239 158 206 132 320 203 231 135 176 198 185 178 173 170 168 174 175 172 170 174 168 172 170 168 166 147 92 72 63 73 114 184 194 158 166
222 244 104 351 313 174 217 237 255 293 44 245 134 230 278 195 201 183 196 197 182 181 176 165 171 173 176 175 175 174 170 170 179 181 150 156 168 166 191 170 176 171 166 165
249 198 147 133 254 215 248 292 261 331 300 92 303 96 261 166 196 204 203 196 191 181 174 169 175 179 182 165 171 171 166 178 192 189 172 174 183 176 147 148 163 169 175 126
213 339 163 196 269 200 320 355 42 37 40 67 353 152 276 203 211 209 179 186 194 187 186 183 159 165 164 163 167 168 177 184 197 196 178 183 183 168 151 165 175 162 97 90
339 264 264 152 16 337 112 67 332 357 6 219 305 101 240 233 252 216 189 176 175 180 177 157 150 161 164 171 177 178 185 195 187 188 178 183 177 172 176 173 153 124 107 101
175 311 178 147 188 218 260 164 157 217 222 272 260 224 259 274 223 215 118 146 147 167 169 169 160 165 179 175 179 180 187 185 163 159 164 153 146 124 113 115 119 116 117 94
143 273 312 175 127 357 343 193 201 105 13 43 263 291 337 339 36 57 113 111 145 141 167 172 162 175 174 173 184 177 174 160 141 132 120 111 113 118 116 104 104 110 114 132
195 114 271 310 191 219 176 231 88 8 150 243 291 305 238 175 278 8 160 161 159 148 155 161 166 167 176 175 168 170 157 150 146 142 131 127 128 122 124 129 139 136 132 118
139 121 245 295 210 204 37 273 140 125 138 167 179 271 227 205 202 202 215 190 173 176 170 174 176 174 171 158 150 151 148 152 153 148 144 140 145 147 135 133 137 136 130 126
198 135 183 220 293 66 147 261 150 122 238 104 145 270 264 218 205 189 216 216 208 190 179 177 174 169 168 171 165 167 169 159 164 155 152 149 146 139 135 133 139 135 160 178
182 147 70 352 357 349 215 199 186 111 85 191 135 259 310 319 264 205 197 211 207 204 186 180 173 183 183 181 182 175 159 155 152 140 139 139 137 134 136 139 161 173 149 147
110 137 159 183 199 191 197 240 177 144 122 182 216 243 279 274 237 251 238 220 208 199 196 195 190 198 195 195 186 142 143 143 145 150 149 151 150 153 151 144 125 140 147 150
119 163 160 181 194 219 226 243 181 175 201 158 233 200 245 222 144 262 189 144 98 115 201 220 224 195 176 142 127 130 153 147 147 156 154 143 82 60 68 85 122 124 146 167
51 210 136 201 75 84 197 276 295 211 171 240 267 339 306 90 79 51 52 98 87 70 72 63 178 164 160 162 163 133 132 133 122 108 99 105 121 114 111 101 97 83 64 6
134 130 95 244 348 25 346 222 220 252 205 167 164 190 292 51 50 42 60 72 73 57 49 55 171 161 162 161 148 124 112 109 109 111 114 107 95 84 70 61 57 50 359 301
131 108 99 191 36 14 241 271 147 106 39 81 88 96 109 111 98 64 42 86 68 56 40 36 36 56 57 84 92 104 104 97 99 96 95 84 79 68 62 68 336 312 256 259
142 121 102 135 185 285 297 155 177 129 43 345 114 115 146 162 80 44 41 63 64 71 65 64 67 69 73 76 89 91 85 89 88 83 80 77 85 97 154 234 247 266 321 287
67 54 116 131 139 205 240 228 116 112 142 182 126 118 98 111 86 218 91 77 77 68 67 76 71 77 73 72 82 83 83 82 78 77 84 97 138 214 229 295 307 269 263 257
49 27 145 136 187 287 246 226 95 113 222 157 136 143 132 107 154 124 98 78 76 77 74 73 73 73 74 77 80 80 79 86 118 134 133 194 253 274 268 273 265 269 274 294
158 138 178 88 71 276 197 109 159 191 111 138 114 118 104 103 96 96 89 86 81 81 77 73 78 82 92 102 107 118 122 155 135 113 80 51 350 288 285 289 287 303 305 293
164 177 176 172 211 273 335 134 93 128 125 118 114 110 112 109 100 98 94 88 86 92 99 103 100 92 64 52 58 70 77 87 73 61 353 301 308 309 301 291 296 297 288 267
266 154 140 106 358 66 61 67 74 88 103 88 84 103 116 115 110 102 102 107 102 86 75 76 86 82 75 74 69 75 69 87 51 334 319 312 302 293 292 282 270 264 257 265
192 140 126 70 31 82 38 70 111 98 94 91 79 88 105 110 108 112 104 89 85 86 81 81 84 79 73 65 59 31 9 356 332 316 298 288 276 276 279 267 251 254 249 226
185 169 150 197 186 133 121 115 130 108 105 102 105 90 82 101 104 100 94 96 95 85 78 65 57 59 33 32 26 15 5 358 346 324 311 290 286 282 277 276 284 247 249 251